Flight Track Log - Related Links

Times and Time Zones

All times are in EDT time to prevent confusion due to time zone crossing. See the N524NK flight status page for this flight to view local times or setup timezone preferences in your user account.

Time Position Orientation Groundspeed Altitude Reporting Facility
EDT Latitude Longitude Course Direction KTS MPH feet Rate Location/Type
Fri 04:05:06 PM 29.9956 -90.2747 280° West 140 161 500  Level Houston Center
Fri 04:05:55 PM 30.0008 -90.3106 280° West 142 163 2,100 1,875 Climbing Houston Center
Fri 04:06:58 PM 30.0461 -90.3583 318° Northwest 240 276 4,000 2,807 Climbing Houston Center
Fri 04:07:44 PM 30.0933 -90.4006 322° Northwest 292 336 7,200 3,871 Climbing Houston Center
Fri 04:08:00 PM 30.1058 -90.4108 325° Northwest 256 295 8,000 3,000 Climbing Houston Center
Fri 04:09:02 PM 30.1644 -90.4706 319° Northwest 273 314 11,100 3,000 Climbing Houston Center
Fri 04:10:04 PM 30.2211 -90.5531 308° West 320 368 14,200 3,000 Climbing Houston Center
Fri 04:11:06 PM 30.2817 -90.6378 310° West 338 389 17,300 3,000 Climbing Houston Center
Fri 04:12:08 PM 30.3583 -90.7419 310° West 353 406 20,400 2,736 Climbing Houston Center
Fri 04:13:11 PM 30.4250 -90.8319 311° West 364 419 23,000 2,256 Climbing Houston Center
Fri 04:14:13 PM 30.4942 -90.9219 312° West 372 428 25,100 1,935 Climbing Houston Center
Fri 04:15:15 PM 30.5656 -91.0128 312° West 380 437 27,000 1,597 Climbing Houston Center
Fri 04:16:17 PM 30.6422 -91.1081 313° West 397 457 28,400 1,452 Climbing Houston Center
Fri 04:17:19 PM 30.7003 -91.2172 302° West 401 461 30,000 1,742 Climbing Houston Center
Fri 04:18:21 PM 30.7506 -91.3478 294° West 401 461 32,000 1,742 Climbing Houston Center
Fri 04:19:23 PM 30.7989 -91.4639 296° West 399 459 33,600 1,597 Climbing Houston Center
Fri 04:20:25 PM 30.8458 -91.5772 296° West 393 452 35,300 1,210 Climbing Houston Center
Fri 04:21:27 PM 30.9031 -91.7147 296° West 392 451 36,100 720 Climbing Houston Center
Fri 04:22:30 PM 30.9500 -91.8283 296° West 391 450 36,800 864 Climbing Houston Center
Fri 04:23:32 PM 30.9975 -91.9453 295° West 397 457 37,900 581 Climbing Houston Center
Fri 04:24:34 PM 31.0442 -92.0581 296° West 395 455 38,000 29 Climbing Houston Center
Fri 04:30:28 PM 31.3332 -92.7695 296° West 405 466 38,100  Climbing FlightAware
Fri 04:31:20 PM 31.3750 -92.8740 295° West 407 468 38,000 -45 Descending FlightAware
Fri 04:32:40 PM 31.4379 -93.0318 295° West 406 467 38,000  Level FlightAware
Fri 04:33:17 PM 31.4674 -93.1053 295° West 406 467 38,000  Level FlightAware
Fri 04:33:47 PM 31.4911 -93.1651 295° West 405 466 38,000  Level FlightAware
Fri 04:34:44 PM 31.5362 -93.2788 295° West 406 467 38,000  Level FlightAware
Fri 04:35:17 PM 31.5622 -93.3451 295° West 405 466 38,000  Level FlightAware
Fri 04:35:53 PM 31.5903 -93.4163 295° West 410 472 38,000  Level FlightAware
Fri 04:36:23 PM 31.6143 -93.4771 295° West 413 475 38,000  Level FlightAware
Fri 04:36:53 PM 31.6387 -93.5389 295° West 414 476 38,000  Level FlightAware
Fri 04:37:32 PM 31.6693 -93.6166 295° West 412 474 38,000 -545 Level FlightAware
Fri 04:38:21 PM 31.7084 -93.7161 295° West 413 475 37,200 -987 Descending FlightAware
Fri 04:38:51 PM 31.7322 -93.7773 295° West 410 472 36,700 -964 Descending FlightAware
Fri 04:39:17 PM 31.7504 -93.8308 292° West 411 473 36,300 -737 Descending FlightAware
Fri 04:39:48 PM 31.7635 -93.8985 283° West 413 475 36,000 -295 Descending FlightAware
Fri 04:40:18 PM 31.7765 -93.9640 283° West 413 475 36,000  Level FlightAware
Fri 04:40:51 PM 31.7909 -94.0360 283° West 411 473 36,000  Level FlightAware
Fri 04:41:21 PM 31.8040 -94.1015 283° West 411 473 36,000  Level FlightAware
Fri 04:41:54 PM 31.8175 -94.1717 283° West 412 474 36,000  Level FlightAware
Fri 04:41:59 PM 31.8198 -94.1834 283° West 411 473 36,000  Level FlightAware
Fri 04:42:24 PM 31.8302 -94.2372 283° West 410 472 36,000  Level FlightAware
Fri 04:42:29 PM 31.8325 -94.2490 283° West 410 472 36,000  Level FlightAware
Fri 04:42:55 PM 31.8434 -94.3045 283° West 410 472 36,000  Level FlightAware
Fri 04:43:02 PM 31.8462 -94.3190 283° West 411 473 36,000  Level FlightAware
Fri 04:43:25 PM 31.8562 -94.3699 283° West 412 474 36,000  Level FlightAware
Fri 04:43:34 PM 31.8600 -94.3897 283° West 411 473 36,000  Level FlightAware
Fri 04:43:59 PM 31.8704 -94.4441 283° West 411 473 36,000  Level FlightAware
Fri 04:44:05 PM 31.8730 -94.4574 283° West 411 473 36,000  Level FlightAware
Fri 04:44:29 PM 31.8830 -94.5093 283° West 411 473 36,000  Level FlightAware
Fri 04:44:37 PM 31.8862 -94.5261 283° West 411 473 36,000  Level FlightAware
Fri 04:45:01 PM 31.8963 -94.5787 283° West 410 472 36,000  Level FlightAware
Fri 04:45:07 PM 31.8987 -94.5913 283° West 409 471 36,000 194 Level FlightAware
Fri 04:45:32 PM 31.9092 -94.6465 283° West 408 470 36,100  Climbing FlightAware
Fri 04:45:37 PM 31.9111 -94.6565 283° West 409 471 36,000 -188 Descending FlightAware
Fri 04:46:04 PM 31.9223 -94.7148 283° West 405 466 36,000  Level FlightAware
Fri 04:46:07 PM 31.9238 -94.7223 283° West 406 467 36,000 -774 Level FlightAware
Fri 04:46:35 PM 31.9351 -94.7815 283° West 403 464 35,600 -774 Descending FlightAware
Fri 04:46:38 PM 31.9361 -94.7871 282° West 403 464 35,600 -968 Level FlightAware
Fri 04:47:06 PM 31.9475 -94.8472 283° West 401 461 35,100 -1,000 Descending FlightAware
Fri 04:47:08 PM 31.9483 -94.8514 283° West 398 458 35,100 -1,000 Level FlightAware
Fri 04:47:36 PM 31.9597 -94.9102 283° West 391 450 34,600 -1,000 Descending FlightAware
Fri 04:47:38 PM 31.9605 -94.9146 282° West 391 450 34,600 -938 Level FlightAware
Fri 04:48:08 PM 31.9721 -94.9766 282° West 387 445 34,100 -1,000 Descending FlightAware
Fri 04:48:14 PM 31.9742 -94.9882 282° West 387 445 34,000 -968 Descending FlightAware
Fri 04:48:39 PM 31.9836 -95.0398 282° West 395 455 33,600 -1,000 Descending FlightAware
Fri 04:48:44 PM 31.9856 -95.0508 282° West 397 457 33,500 -1,000 Descending FlightAware
Fri 04:49:09 PM 31.9951 -95.1038 282° West 398 458 33,100 -1,000 Descending FlightAware
Fri 04:49:14 PM 31.9971 -95.1147 282° West 397 457 33,000 -1,000 Descending FlightAware
Fri 04:49:39 PM 32.0071 -95.1671 283° West 395 455 32,600 -980 Descending FlightAware
Fri 04:50:03 PM 32.0166 -95.2170 283° West 395 455 32,200 -938 Descending FlightAware
Fri 04:50:11 PM 32.0198 -95.2328 283° West 395 455 32,100 -857 Descending FlightAware
Fri 04:50:17 PM 32.0230 -95.2460 286° West 394 453 32,000 -857 Descending FlightAware
Fri 04:50:18 PM 32.0236 -95.2480 289° West 395 455 32,000 -1,000 Level FlightAware
Fri 04:50:47 PM 32.0419 -95.3068 290° West 391 450 31,500 -1,000 Descending FlightAware
Fri 04:50:48 PM 32.0425 -95.3088 289° West 391 450 31,500 -968 Level FlightAware
Fri 04:51:18 PM 32.0608 -95.3688 290° West 387 445 31,000 -968 Descending FlightAware
Fri 04:51:19 PM 32.0611 -95.3698 289° West 387 445 31,000 -968 Level FlightAware
Fri 04:51:49 PM 32.0793 -95.4297 290° West 385 443 30,500 -1,031 Descending FlightAware
Fri 04:52:23 PM 32.0994 -95.4962 290° West 385 443 29,900 -1,043 Descending FlightAware
Fri 04:52:35 PM 32.1065 -95.5197 290° West 385 443 29,700 -1,000 Descending FlightAware
Fri 04:52:53 PM 32.1175 -95.5562 290° West 390 449 29,400 -1,000 Descending FlightAware
Fri 04:53:17 PM 32.1317 -95.6035 290° West 392 451 29,000 -968 Descending FlightAware
Fri 04:53:24 PM 32.1359 -95.6178 289° West 394 453 28,900 -973 Descending FlightAware
Fri 04:53:54 PM 32.1547 -95.6804 290° West 394 453 28,400 -941 Descending FlightAware
Fri 04:54:15 PM 32.1672 -95.7223 289° West 398 458 28,100 -968 Descending FlightAware
Fri 04:54:25 PM 32.1733 -95.7430 289° West 405 466 27,900 -1,256 Descending FlightAware
Fri 04:54:58 PM 32.1940 -95.8137 289° West 411 473 27,200 -1,297 Descending FlightAware
Fri 04:55:02 PM 32.1965 -95.8222 289° West 409 471 27,100 -2,438 Descending FlightAware
Fri 04:55:30 PM 32.2140 -95.8809 289° West 411 473 25,900 -3,443 Descending FlightAware
Fri 04:56:03 PM 32.2349 -95.9504 290° West 410 472 23,600 -4,000 Descending FlightAware
Fri 04:56:36 PM 32.2553 -96.0189 289° West 401 461 21,500 -4,062 Descending FlightAware
Fri 04:57:08 PM 32.2740 -96.0820 289° West 386 444 19,200 -4,737 Descending FlightAware
Fri 04:57:14 PM 32.2783 -96.0969 289° West 386 444 18,500 -5,250 Descending FlightAware
Fri 04:57:48 PM 32.2970 -96.1610 289° West 376 433 15,700 -4,622 Descending FlightAware
Fri 04:58:28 PM 32.3180 -96.2340 289° West 359 413 12,800 -3,459 Descending FlightAware
Fri 04:59:13 PM 32.3410 -96.3140 289° West 321 369 10,800 -1,412 Descending FlightAware
Fri 04:59:53 PM 32.3580 -96.3740 289° West 269 310 10,800  Level FlightAware
Fri 05:00:38 PM 32.3760 -96.4320 290° West 248 285 10,800 -353 Level FlightAware
Fri 05:01:18 PM 32.3990 -96.4800 300° West 249 287 10,300 -943 Descending FlightAware
Fri 05:01:48 PM 32.4180 -96.5160 302° West 256 295 9,700 -1,200 Descending FlightAware
Fri 05:02:13 PM 32.4330 -96.5460 301° West 260 299 9,200 -1,091 Descending FlightAware
Fri 05:02:43 PM 32.4520 -96.5810 303° West 257 296 8,700 -1,091 Descending FlightAware
Fri 05:03:08 PM 32.4690 -96.6110 304° West 250 288 8,200 -1,091 Descending FlightAware
Fri 05:03:38 PM 32.4880 -96.6450 304° West 240 276 7,700 -1,100 Descending FlightAware
Fri 05:04:08 PM 32.5050 -96.6770 302° West 237 273 7,100 -1,091 Descending FlightAware
Fri 05:04:33 PM 32.5200 -96.7040 303° West 233 268 6,700 -982 Descending FlightAware
Fri 05:05:03 PM 32.5370 -96.7350 303° West 237 273 6,200 -1,091 Descending FlightAware
Fri 05:05:28 PM 32.5530 -96.7640 303° West 228 262 5,700 -1,200 Descending FlightAware
Fri 05:05:58 PM 32.5700 -96.7950 303° West 227 261 5,100 -900 Descending FlightAware
Fri 05:06:28 PM 32.5860 -96.8260 301° West 226 260 4,800 -327 Descending FlightAware
Fri 05:06:53 PM 32.6000 -96.8510 304° West 230 265 4,800  Level FlightAware
Fri 05:07:23 PM 32.6180 -96.8830 304° West 226 260 4,800  Level FlightAware
Fri 05:07:48 PM 32.6330 -96.9110 302° West 221 254 4,800  Level FlightAware
Fri 05:08:08 PM 32.6430 -96.9300 302° West 227 261 4,800  Level FlightAware
Fri 05:08:33 PM 32.6580 -96.9540 307° West 222 255 4,800 -171 Level FlightAware
Fri 05:08:43 PM 32.6660 -96.9610 324° Northwest 216 249 4,700 -600 Descending FlightAware
Fri 05:09:03 PM 32.6840 -96.9710 335° Northwest 204 235 4,500 -1,067 Descending FlightAware
Fri 05:09:28 PM 32.7060 -96.9820 337° Northwest 199 229 3,900 -982 Descending FlightAware
Fri 05:09:58 PM 32.7290 -96.9940 336° Northwest 176 203 3,600 -1,000 Descending FlightAware
Fri 05:10:28 PM 32.7510 -97.0040 339° North 155 178 2,900 -1,418 Descending FlightAware
Fri 05:10:53 PM 32.7670 -97.0130 335° Northwest 159 183 2,300 -1,091 Descending FlightAware
Fri 05:11:23 PM 32.7870 -97.0230 337° Northwest 149 171 1,900 -533 Descending FlightAware
Fri 05:11:38 PM 32.7980 -97.0260 347° North 159 183 1,900 -240 Level FlightAware
Fri 05:11:48 PM 32.8030 -97.0260 360° North 161 185 1,800 -655 Descending FlightAware
Fri 05:12:33 PM 32.8050 -97.0260 360° North 144 166 1,300 -429 Descending FlightAware
Fri 05:12:58 PM 32.7890 -97.0260 180° South 144 166 1,300 -429 Level FlightAware
Fri 05:13:29 PM 32.8667 -97.0167 180° South 112 129 900 -774 Descending Dallas TRACON
Fri 05:15:00 PM 32.8833 -97.0333 308° West  Level FlightAware
Fri 05:22:00 PM 32.8968 -97.0380 308° West  Level Estimated

Login

Don't have an account? Register now (free) for customized features, flight alerts, and more!